Weather History for KAXN - March, 2014

Change the Weather History Date:

Sunday, March 23, 2014

  Actual Average Record
Temperature  
Mean Temperature 14 °F -  
Max Temperature 23 °F 37 °F 69 °F (2012)
Min Temperature 5 °F 20 °F -16 °F (1965)
Degree Days  
Heating Degree Days 51    
Moisture  
Dew Point 6 °F    
Average Humidity 69    
Maximum Humidity 85    
Minimum Humidity 53    
Precipitation  
Precipitation 0.00 in - - ()
Sea Level Pressure  
Sea Level Pressure 30.48 in    
Wind  
Wind Speed 6 mph (West)    
Max Wind Speed 13 mph    
Max Gust Speed 18 mph    
Visibility 10 miles    
Events Snow    
Averages and records for this station are not official NWS values.
T = Trace of Precipitation, MM = Missing Value Source: NWS Daily Summary

Daily Weather History Graph

Daily Weather History Graph

Search for Another Location

Airport or City:

Trip Planner

Search our weather history database for the weather conditions in past years. The results will help you decide how hot, cold, wet, or windy it might be!

Date:

Astronomy

Mar. 23, 2014 Rise Set
Actual Time 7:18 AM CDT 7:38 PM CDT
Civil Twilight 6:49 AM CDT 8:08 PM CDT
Nautical Twilight 6:13 AM CDT 8:43 PM CDT
Astronomical Twilight 5:37 AM CDT 9:19 PM CDT
Moon 2:11 AM CDT (3/23) 11:45 AM CDT (3/23)
Length of Visible Light 13h 19m
Length of Day
12h 19m
Waning Gibbous, 54% of the Moon is Illuminated
Mar 23
Waning Gibbous
Mar 23
Last Quarter
Mar 30
New
Apr 7
First Quarter
Apr 15
Full

Hourly Weather History & Observations

Time (CDT) Temp. Windchill Dew Point Humidity Pressure Visibility Wind Dir Wind Speed Gust Speed Precip Events Conditions
12:53 AM 7.0 °F 0.1 °F 1.9 °F 80% 30.58 in 10.0 mi West 3.5 mph - N/A   Clear
1:53 AM 6.1 °F -2.8 °F 1.9 °F 83% 30.58 in 10.0 mi WSW 4.6 mph - N/A   Clear
2:53 AM 6.1 °F -5.6 °F 1.9 °F 83% 30.57 in 10.0 mi WSW 6.9 mph - N/A   Clear
3:53 AM 6.1 °F -4.3 °F 1.9 °F 83% 30.56 in 10.0 mi WSW 5.8 mph - N/A   Clear
4:53 AM 6.1 °F -4.3 °F 1.0 °F 80% 30.56 in 10.0 mi WSW 5.8 mph - N/A   Clear
5:53 AM 5.0 °F -4.1 °F 1.0 °F 84% 30.56 in 10.0 mi West 4.6 mph - N/A   Clear
6:53 AM 6.1 °F -4.3 °F 1.9 °F 83% 30.56 in 10.0 mi WSW 5.8 mph - N/A   Scattered Clouds
7:53 AM 7.0 °F -1.7 °F 1.9 °F 80% 30.55 in 10.0 mi WSW 4.6 mph - N/A   Mostly Cloudy
8:53 AM 10.9 °F 1.4 °F 6.1 °F 81% 30.55 in 10.0 mi West 5.8 mph - N/A   Scattered Clouds
9:02 AM 10.4 °F 2.2 °F 6.8 °F 85% 30.44 in 10.0 mi West 4.6 mph - N/A   Mostly Cloudy
9:28 AM 12.2 °F 2.9 °F 6.8 °F 79% 30.45 in 10.0 mi West 5.8 mph - N/A   Overcast
9:53 AM 14.0 °F 5.1 °F 7.0 °F 74% 30.55 in 10.0 mi WNW 5.8 mph - N/A   Overcast
10:53 AM 15.1 °F 3.3 °F 7.0 °F 70% 30.54 in 7.0 mi West 9.2 mph - N/A   Overcast
11:19 AM 15.8 °F 5.1 °F 6.8 °F 68% 30.43 in 2.5 mi WNW 8.1 mph - 0.00 in Snow Light Snow
11:31 AM 15.8 °F 2.7 °F 6.8 °F 68% 30.43 in 6.0 mi West 11.5 mph 18.4 mph 0.00 in   Haze
11:43 AM 15.8 °F 5.1 °F 5.0 °F 62% 30.43 in 10.0 mi WNW 8.1 mph - 0.00 in   Overcast
11:53 AM 17.1 °F 3.6 °F 6.1 °F 62% 30.53 in 10.0 mi WNW 12.7 mph - 0.00 in   Overcast
12:07 PM 17.6 °F 7.3 °F 6.8 °F 63% 30.43 in 10.0 mi WNW 8.1 mph - N/A   Overcast
12:53 PM 19.0 °F 9.0 °F 8.1 °F 62% 30.51 in 10.0 mi NW 8.1 mph - N/A   Overcast
1:01 PM 19.4 °F 8.6 °F 6.8 °F 58% 30.41 in 10.0 mi West 9.2 mph - N/A   Overcast
1:53 PM 19.9 °F 7.3 °F 7.0 °F 57% 30.49 in 10.0 mi West 12.7 mph - N/A   Mostly Cloudy
2:53 PM 21.0 °F 11.4 °F 6.1 °F 53% 30.46 in 10.0 mi NW 8.1 mph - N/A   Mostly Cloudy
3:53 PM 19.9 °F 8.6 °F 6.1 °F 55% 30.44 in 10.0 mi WNW 10.4 mph 16.1 mph N/A   Partly Cloudy
4:53 PM 23.0 °F 11.7 °F 8.1 °F 53% 30.42 in 10.0 mi WNW 11.5 mph - N/A   Mostly Cloudy
5:53 PM 23.0 °F 12.4 °F 8.1 °F 53% 30.41 in 10.0 mi WNW 10.4 mph - N/A   Mostly Cloudy
6:53 PM 21.0 °F 13.4 °F 8.1 °F 57% 30.40 in 10.0 mi NW 5.8 mph - N/A   Clear
7:53 PM 19.9 °F 14.9 °F 8.1 °F 60% 30.40 in 10.0 mi North 3.5 mph - N/A   Clear
8:53 PM 19.0 °F 13.9 °F 8.1 °F 62% 30.40 in 10.0 mi North 3.5 mph - N/A   Clear
9:53 PM 17.1 °F - 8.1 °F 68% 30.40 in 10.0 mi Calm Calm - N/A   Clear
10:53 PM 16.0 °F 10.4 °F 8.1 °F 71% 30.41 in 10.0 mi SSE 3.5 mph - N/A   Clear
11:53 PM 17.1 °F 11.7 °F 9.0 °F 71% 30.40 in 10.0 mi South 3.5 mph - N/A   Overcast